Wind_Speed
25 22 20 20 19 20 21 21 21 22 24 25 24 21 20 19 20 20 18 17 16 16 15 14 13 12 11 12 11 12 12 12 13 14 14 14 15 16 17 18 18 17 17 18
27 24 22 22 20 19 20 20 22 23 24 25 24 23 22 21 20 20 20 19 17 16 15 14 14 14 13 13 13 13 13 13 13 13 13 14 14 15 16 17 18 18 18 18
26 24 24 22 22 22 22 22 23 24 23 22 23 23 23 21 22 22 21 20 18 17 16 15 15 14 14 13 13 13 14 14 14 13 14 14 15 15 17 18 18 19 19 18
26 25 24 22 21 23 22 23 26 27 28 27 26 25 24 24 24 22 21 21 20 19 18 17 16 16 15 14 14 14 14 14 14 14 14 14 15 16 17 17 17 18 18 19
26 25 24 23 23 24 24 26 28 27 29 29 29 28 28 27 25 23 23 22 21 19 19 19 18 18 17 15 15 16 16 15 15 15 15 15 16 17 18 18 18 19 20 20
26 26 25 26 25 26 27 28 29 29 29 28 27 27 27 27 25 24 24 24 23 22 21 21 20 20 19 18 17 18 18 17 17 17 17 17 17 18 19 19 20 20 21 22
26 26 27 28 27 27 28 28 28 28 29 28 28 28 28 27 26 25 25 25 24 24 23 23 22 21 20 20 20 20 20 20 20 20 19 19 19 19 20 21 22 22 23 24
26 26 27 27 27 28 28 28 28 27 27 27 27 27 27 27 26 25 25 25 25 25 26 25 24 24 23 22 22 22 22 22 22 22 22 22 22 22 22 23 24 25 26 26
28 28 27 27 27 27 27 28 28 28 27 26 26 26 26 26 26 25 25 26 26 26 27 27 26 25 25 25 25 25 24 24 24 24 24 25 24 24 24 25 25 26 27 27
28 27 27 27 27 27 27 27 26 27 27 27 26 25 25 25 25 25 25 25 26 26 26 27 27 27 27 27 27 26 26 25 26 26 26 26 26 26 26 26 26 26 27 28
26 26 26 28 27 26 26 26 26 26 26 26 25 24 24 24 24 24 24 24 25 25 25 26 26 26 27 27 28 28 28 27 26 27 26 26 26 26 27 28 28 28 29 29
24 25 25 25 26 25 25 25 25 25 24 25 24 23 22 22 23 23 23 23 24 24 25 25 26 26 27 27 29 29 29 28 28 28 28 28 28 28 28 29 30 31 32 32
25 24 24 24 24 23 24 24 24 23 22 22 23 22 22 22 22 22 22 23 23 24 24 25 26 26 27 28 29 30 30 30 30 30 29 29 30 30 31 31 32 32 32 33
23 22 22 23 22 22 22 22 22 22 20 20 20 20 21 21 22 22 22 22 23 23 24 25 26 26 26 27 27 28 29 30 31 31 31 31 32 32 32 32 33 33 34 35
20 20 20 19 19 19 19 19 18 19 19 19 19 19 20 20 21 21 22 21 22 23 24 24 24 25 25 26 26 26 27 28 29 30 31 31 31 31 32 33 33 34 34 34
18 18 18 17 17 17 18 18 17 16 17 17 17 18 18 18 19 19 20 21 21 21 22 22 23 23 23 24 24 24 25 27 28 29 29 30 30 31 32 33 34 35 35 36
16 16 16 16 16 15 15 15 15 15 15 15 15 15 15 16 17 16 16 17 18 18 19 19 20 21 22 22 23 24 25 26 27 27 28 29 29 30 32 34 35 35 37 37
16 15 14 14 14 14 14 13 13 13 13 13 13 13 13 13 14 14 14 15 16 17 18 18 19 20 20 22 24 24 24 25 26 27 28 29 29 30 31 32 34 35 36 36
15 14 13 13 13 13 13 12 12 12 12 12 12 12 12 12 12 12 13 14 15 15 16 17 18 19 20 22 23 24 25 26 27 28 29 30 30 31 31 32 33 35 36 37
14 14 13 13 13 13 13 12 12 12 12 11 11 11 11 12 12 12 12 12 13 14 16 17 17 18 20 21 22 24 25 26 26 26 27 28 29 30 31 31 32 34 34 34
13 13 13 13 13 13 13 12 12 12 12 12 12 12 12 12 12 12 13 13 14 15 15 16 17 17 19 20 20 21 23 23 24 24 26 27 28 29 30 31 31 32 32 33
13 12 12 13 13 13 13 12 12 12 12 11 12 12 12 13 13 13 14 15 16 16 17 18 19 19 20 21 22 23 23 23 24 25 26 27 28 29 29 31 31 32 33 34
13 13 12 12 13 12 13 12 12 12 12 13 13 13 13 13 14 15 16 16 17 17 18 19 20 21 22 23 23 23 24 25 26 27 28 28 29 30 31 32 32 33 34 35
11 11 11 11 11 11 11 11 11 11 12 13 13 14 15 15 16 17 18 18 19 19 20 21 21 22 23 24 25 26 26 27 28 28 29 29 30 30 31 32 32 34 35 36
9 9 9 9 9 10 10 11 11 12 13 13 13 13 14 15 16 17 18 19 19 20 20 21 22 23 24 25 26 26 27 28 28 29 29 30 30 31 32 32 33 34 35 35
9 9 8 9 9 10 11 11 11 11 12 13 14 14 15 15 16 17 18 19 20 21 22 23 24 24 25 26 26 27 27 27 28 28 29 29 30 31 31 32 33 33 34 35
10 10 10 10 11 11 12 12 12 13 13 14 15 16 16 17 18 19 20 21 22 23 24 24 25 25 26 26 26 26 26 27 28 28 29 29 29 30 30 31 32 32 33 33
Wind_Direction
217 224 220 220 223 227 232 235 239 241 247 250 259 262 262 268 273 274 274 273 266 259 252 252 251 247 247 245 242 235 232 230 224 222 222 222 223 222 223 224 224 225 228 229
221 227 230 228 225 230 236 237 241 245 250 253 259 259 263 265 266 268 268 268 263 255 250 248 248 248 249 244 240 236 232 232 228 226 226 227 226 225 226 227 228 231 234 235
225 231 236 236 232 231 234 238 242 247 249 255 258 257 261 263 262 265 264 261 259 255 250 249 248 252 250 243 240 236 234 233 232 233 234 234 235 234 231 232 234 237 237 238
226 230 236 236 239 239 236 239 243 247 253 255 256 259 261 261 262 262 262 260 256 253 251 251 251 253 250 244 239 238 235 232 232 233 234 235 237 238 238 237 236 237 237 239
228 230 236 238 237 242 245 244 245 248 250 253 255 260 261 260 258 258 257 254 253 252 248 248 248 249 248 243 241 240 239 237 236 237 238 240 241 243 241 240 240 243 243 244
229 231 231 235 236 241 246 249 249 252 255 258 258 259 258 258 255 256 254 252 252 250 248 247 246 246 244 244 243 244 244 242 242 243 244 244 244 244 244 244 246 247 249 250
230 234 236 238 238 242 246 249 253 256 257 259 260 259 259 258 258 256 254 252 251 250 249 248 247 246 245 245 246 245 246 246 247 247 248 248 249 250 250 250 251 252 252 254
232 233 236 239 238 242 249 253 258 259 260 258 258 258 258 256 256 254 251 250 250 249 248 247 247 247 246 246 246 248 249 249 249 250 251 251 253 253 253 254 256 257 258 258
235 237 240 243 243 247 252 256 258 259 260 258 259 259 256 254 254 254 251 250 250 250 248 247 248 249 248 248 247 250 252 251 250 252 254 255 256 255 257 259 261 263 262 262
238 239 243 246 248 249 251 255 257 257 259 261 261 258 256 254 253 252 252 252 250 250 249 248 248 250 249 249 248 249 250 253 252 253 254 255 257 259 262 263 265 267 265 264
239 245 247 246 250 251 254 254 256 259 260 259 258 256 254 252 250 250 251 251 250 250 248 248 248 249 249 249 248 249 251 254 255 256 257 256 257 259 263 265 265 267 267 267
239 244 248 251 253 255 257 258 258 259 258 255 255 250 249 248 250 250 250 250 249 249 250 249 248 249 250 250 249 249 251 253 256 259 259 259 260 261 263 266 267 269 268 268
244 247 250 251 253 255 255 257 257 257 258 255 251 248 248 248 249 249 249 250 249 250 251 252 251 251 251 251 251 251 253 254 256 258 260 261 262 263 264 266 267 270 271 270
243 244 248 252 252 252 253 254 254 254 255 253 249 247 248 248 249 249 250 251 251 251 252 253 253 252 252 252 253 253 254 254 255 257 259 261 264 264 264 266 269 271 273 274
241 245 249 249 248 249 250 252 253 251 249 252 250 246 247 249 250 249 250 252 253 253 253 253 253 253 253 253 254 254 254 255 256 258 260 262 265 267 268 270 271 273 274 275
238 243 245 247 249 250 251 252 253 251 249 250 250 249 248 249 249 250 251 251 253 254 254 254 253 254 255 257 258 258 259 260 260 261 263 264 267 269 270 271 271 273 275 276
236 241 242 243 245 247 247 247 248 249 248 248 246 247 249 250 250 252 253 253 255 257 259 259 257 255 256 258 259 260 261 262 263 264 264 266 269 272 272 272 274 276 277 278
237 239 242 244 246 247 246 245 245 244 244 242 243 248 249 249 249 252 259 261 260 257 258 262 263 259 257 259 261 262 264 266 265 265 266 268 271 274 276 276 277 278 278 281
237 239 240 241 244 246 248 248 248 245 243 244 248 252 254 256 258 259 261 264 267 266 265 267 269 269 266 266 267 269 272 271 270 270 271 272 273 274 275 277 278 280 280 281
233 235 237 240 242 245 248 249 251 248 245 247 249 251 255 259 262 267 270 271 272 272 272 271 272 273 272 272 271 272 274 276 275 275 275 275 276 278 280 281 282 282 283 284
234 236 239 240 241 243 246 247 247 244 244 246 250 254 259 263 267 272 277 279 280 280 280 280 279 279 279 279 280 280 281 281 281 281 280 280 280 281 282 283 284 285 286 289
233 235 236 236 238 240 240 241 242 242 242 246 253 259 263 268 271 274 278 282 284 286 286 287 287 287 287 287 286 287 288 287 286 286 286 286 285 285 286 287 289 289 290 292
233 235 234 234 236 238 240 240 241 243 245 249 254 260 265 270 273 276 279 282 283 286 287 287 287 287 287 288 289 289 290 290 290 289 288 287 287 287 288 289 290 291 292 293
228 226 227 228 231 234 235 236 242 249 252 253 258 265 270 273 276 277 280 283 285 288 289 290 291 291 291 291 291 291 292 292 292 291 290 290 290 290 290 291 292 293 294 294
226 227 229 235 243 246 246 249 252 257 259 260 266 271 274 277 280 282 283 285 288 290 292 293 294 294 294 294 294 294 294 294 295 295 293 293 293 292 292 293 293 293 293 293
234 238 239 240 245 250 252 255 257 260 264 268 273 277 279 281 283 284 287 289 291 292 294 295 296 296 295 295 295 295 294 294 294 294 295 295 295 295 295 295 295 295 294 295
239 242 246 250 254 256 259 261 264 268 272 275 277 280 284 286 288 289 291 293 294 296 297 298 298 297 296 296 295 294 293 293 294 295 295 296 296 296 297 298 298 298 298 298
Height
5784 5785 5787 5790 5794 5797 5799 5801 5804 5804 5804 5802 5802 5802 5801 5803 5805 5806 5806 5807 5807 5808 5809 5810 5811 5812 5813 5814 5815 5816 5818 5819 5820 5822 5825 5827 5829 5831 5833 5835 5838 5840 5843 5845
5778 5781 5782 5785 5788 5791 5794 5796 5797 5798 5798 5797 5798 5798 5798 5799 5800 5801 5802 5802 5803 5804 5805 5807 5808 5809 5811 5812 5813 5814 5815 5817 5818 5820 5822 5824 5826 5828 5830 5832 5835 5837 5839 5842
5774 5776 5778 5781 5783 5785 5788 5790 5790 5790 5790 5790 5792 5792 5793 5794 5795 5796 5797 5798 5799 5800 5802 5803 5805 5806 5807 5809 5810 5812 5813 5815 5816 5818 5820 5822 5823 5825 5827 5829 5831 5834 5836 5838
5768 5771 5773 5777 5777 5779 5781 5783 5784 5784 5784 5785 5787 5787 5788 5789 5790 5792 5793 5794 5795 5796 5798 5800 5801 5803 5804 5806 5807 5809 5811 5812 5814 5816 5817 5819 5821 5822 5824 5826 5828 5830 5832 5834
5761 5764 5767 5769 5771 5773 5775 5776 5777 5777 5778 5779 5780 5781 5782 5783 5785 5786 5787 5789 5790 5791 5794 5796 5798 5799 5801 5802 5804 5806 5808 5809 5811 5813 5815 5816 5818 5819 5820 5822 5824 5825 5827 5829
5755 5758 5761 5763 5765 5767 5769 5769 5769 5770 5771 5773 5775 5775 5776 5777 5778 5780 5782 5783 5785 5788 5789 5792 5793 5795 5797 5799 5801 5802 5804 5806 5808 5809 5811 5812 5814 5815 5816 5818 5819 5821 5822 5824
5749 5751 5753 5755 5757 5760 5763 5763 5763 5764 5765 5767 5768 5769 5769 5771 5772 5774 5776 5778 5780 5782 5784 5786 5788 5790 5792 5794 5796 5798 5799 5802 5803 5805 5806 5808 5809 5810 5811 5813 5814 5815 5817 5818
5742 5745 5748 5748 5750 5753 5754 5756 5756 5757 5758 5759 5761 5762 5762 5764 5765 5768 5770 5772 5773 5775 5778 5780 5782 5784 5787 5789 5791 5792 5794 5796 5798 5799 5801 5802 5804 5805 5806 5807 5808 5809 5810 5811
5736 5739 5740 5742 5744 5745 5747 5749 5750 5751 5752 5752 5754 5756 5756 5757 5759 5761 5764 5765 5767 5770 5772 5774 5776 5779 5781 5783 5785 5787 5788 5790 5791 5793 5794 5796 5797 5798 5799 5801 5802 5802 5803 5803
5729 5731 5734 5736 5736 5738 5741 5743 5743 5744 5745 5746 5747 5749 5750 5752 5754 5756 5758 5759 5761 5763 5765 5767 5770 5772 5774 5776 5778 5780 5782 5783 5785 5786 5787 5788 5790 5791 5792 5793 5794 5794 5794 5795
5723 5725 5727 5729 5731 5733 5734 5736 5736 5737 5738 5740 5741 5743 5744 5746 5747 5749 5751 5753 5755 5757 5759 5761 5763 5765 5768 5769 5771 5773 5775 5777 5778 5779 5780 5781 5783 5784 5785 5785 5786 5786 5786 5787
5717 5720 5722 5724 5725 5727 5729 5730 5730 5731 5732 5733 5734 5736 5738 5740 5741 5743 5745 5747 5749 5751 5753 5755 5757 5759 5761 5762 5764 5766 5768 5769 5771 5772 5773 5774 5775 5776 5777 5777 5777 5778 5778 5778
5712 5714 5716 5718 5719 5721 5723 5724 5724 5725 5726 5727 5729 5731 5732 5734 5736 5738 5740 5741 5743 5745 5747 5748 5750 5752 5753 5755 5757 5758 5760 5762 5763 5764 5765 5766 5767 5768 5769 5769 5769 5769 5769 5768
5707 5709 5711 5712 5714 5715 5717 5718 5719 5720 5722 5723 5724 5726 5727 5729 5731 5732 5734 5736 5737 5739 5740 5742 5743 5745 5746 5748 5749 5751 5752 5753 5754 5755 5756 5757 5758 5759 5759 5760 5760 5759 5759 5759
5703 5705 5706 5708 5709 5710 5711 5713 5714 5715 5717 5718 5720 5721 5722 5724 5725 5727 5728 5730 5731 5732 5734 5735 5736 5738 5739 5740 5742 5743 5744 5745 5746 5747 5748 5749 5749 5750 5750 5750 5750 5750 5750 5749
5699 5701 5702 5704 5705 5706 5707 5709 5710 5711 5712 5714 5715 5716 5717 5719 5720 5722 5723 5724 5725 5726 5728 5729 5730 5731 5732 5733 5735 5736 5737 5738 5739 5739 5740 5740 5741 5741 5741 5741 5740 5740 5739 5738
5695 5697 5698 5700 5701 5702 5703 5704 5706 5707 5708 5710 5711 5712 5713 5715 5716 5717 5718 5719 5720 5721 5722 5723 5724 5726 5727 5728 5729 5730 5730 5731 5731 5731 5732 5732 5732 5732 5732 5731 5730 5729 5729 5728
5692 5693 5695 5696 5697 5699 5700 5701 5702 5703 5705 5706 5707 5708 5709 5711 5711 5712 5713 5714 5715 5716 5717 5718 5719 5720 5721 5722 5723 5723 5723 5723 5723 5723 5723 5723 5723 5723 5722 5722 5721 5720 5718 5717
5688 5690 5691 5693 5694 5696 5697 5698 5699 5700 5702 5703 5704 5705 5706 5707 5708 5709 5710 5711 5711 5712 5712 5713 5714 5714 5715 5715 5715 5715 5715 5715 5715 5715 5714 5714 5714 5713 5712 5712 5710 5709 5708 5706
5685 5686 5688 5690 5691 5692 5694 5695 5696 5697 5698 5700 5701 5702 5703 5704 5705 5706 5706 5707 5707 5707 5708 5708 5709 5709 5709 5709 5709 5708 5708 5707 5706 5706 5705 5705 5705 5704 5703 5701 5700 5699 5697 5696
5681 5683 5685 5686 5687 5689 5691 5692 5693 5694 5695 5697 5698 5699 5700 5701 5702 5702 5703 5703 5703 5703 5703 5703 5703 5703 5703 5703 5702 5702 5701 5700 5699 5698 5697 5696 5695 5694 5693 5691 5690 5689 5687 5685
5679 5680 5682 5683 5684 5686 5687 5689 5690 5691 5692 5694 5695 5696 5697 5697 5698 5699 5699 5699 5699 5699 5699 5699 5698 5698 5697 5697 5696 5695 5694 5693 5692 5691 5689 5688 5687 5686 5684 5682 5681 5679 5677 5675
5676 5678 5679 5680 5681 5683 5684 5686 5687 5688 5689 5691 5692 5692 5693 5694 5694 5695 5695 5695 5694 5694 5694 5693 5692 5692 5691 5690 5689 5688 5687 5685 5684 5682 5681 5680 5678 5677 5675 5673 5671 5669 5666 5664
5673 5674 5676 5677 5678 5680 5681 5682 5684 5685 5686 5687 5688 5688 5689 5689 5689 5689 5689 5689 5689 5688 5688 5687 5686 5685 5684 5683 5681 5680 5679 5677 5675 5674 5672 5671 5669 5667 5665 5663 5660 5658 5655 5652
5671 5672 5673 5675 5676 5677 5678 5680 5681 5682 5682 5683 5684 5684 5684 5685 5685 5684 5684 5683 5683 5682 5681 5680 5679 5678 5677 5675 5673 5672 5670 5668 5666 5665 5663 5661 5659 5657 5654 5652 5649 5647 5644 5641
5669 5670 5671 5673 5674 5675 5676 5677 5678 5678 5679 5680 5680 5680 5680 5680 5680 5679 5678 5678 5677 5676 5674 5673 5672 5670 5669 5667 5665 5663 5661 5660 5658 5656 5654 5651 5649 5647 5644 5641 5639 5636 5633 5630
5667 5668 5669 5671 5671 5672 5673 5674 5674 5675 5675 5676 5676 5676 5675 5675 5674 5673 5672 5671 5670 5668 5667 5665 5664 5662 5660 5658 5656 5655 5653 5651 5649 5647 5645 5642 5640 5638 5635 5632 5629 5626 5623 5619